User: anonymous   Login
Location: Lac de la Montange Noire
(46.1952°N, 74.2701°W)
Time: 04:30:44
(UTC-04:00)
Language:

Iridium 42 - Orbit

View from above orbital plane
View from above orbital plane
View from above satellite
View from above satellite

Ground track
Ground track

The orbit data is extracted from the following two-line orbital elements,

1 25077U 97077A   17147.82075919 +.00000117 +00000-0 +34461-4 0  9993
2 25077 086.3989 030.4275 0002214 079.8679 280.2767 14.34544163019267
Epoch (UTC): 27 May 2017 19:41:53
Eccentricity: 0.0002214
inclination: 86.3989°
perigee height: 775 km
apogee height: 778 km
right ascension of ascending node: 30.4275°
argument of perigee: 79.8679°
revolutions per day: 14.34544163
mean anomaly at epoch: 280.2767°
orbit number at epoch: 1926

The dashed part of the orbit path shows where the satellite is in the earth's shadow,  

DLR